DW2738 Weather Reports


time (UTC)temp
C
wind
direction
speed
KPH
gust
KPH
rain 1hr
cm
rain 24hr
cm
rain mn
cm
humidity
%
barometer
mb
20260506192839 20 204 6.4 11.3 0.00 0.13 0.13 82 1007.7
20260506192336 20 255 6.4 9.7 0.00 0.13 0.13 83 1007.8
20260506191833 19 189 8.0 11.3 0.00 0.13 0.13 83 1008.0
20260506191329 19 182 9.7 14.5 0.00 0.13 0.13 84 1007.8
20260506190826 19 263 4.8 8.0 0.00 0.13 0.13 86 1007.8
20260506190322 19 260 6.4 17.7 0.00 0.13 0.13 84 1007.9
20260506185819 18 178 14.5 20.9 0.00 0.13 0.13 88 1008.0
20260506185316 18 115 9.7 11.3 0.00 0.13 0.13 89 1008.3
20260506184813 18 264 8.0 9.7 0.00 0.13 0.13 89 1008.6
20260506184311 18 201 4.8 8.0 0.00 0.13 0.13 91 1008.5
20260506183808 18 121 4.8 8.0 0.00 0.13 0.13 91 1008.4
20260506183303 18 75 0.0 8.0 0.00 0.13 0.13 92 1008.3
20260506182800 17 225 6.4 12.9 0.00 0.13 0.13 92 1008.4
20260506182257 17 156 3.2 8.0 0.00 0.13 0.13 94 1008.4
20260506181755 17 191 3.2 8.0 0.00 0.13 0.13 95 1008.7
20260506181253 17 251 1.6 9.7 0.05 0.13 0.13 96 1008.6
20260506180750 17 228 0.0 6.4 0.23 0.13 0.13 95 1008.6
20260506180245 17 152 3.2 14.5 0.23 0.13 0.13 94 1008.9
20260506175742 17 216 8.0 9.7 0.13 0.10 0.10 93 1009.0
20260506175239 17 205 4.8 16.1 0.30 0.08 0.08 91 1008.7
20260506174737 17 255 4.8 14.5 0.30 0.05 0.05 90 1008.9
20260506174233 18 206 4.8 12.9 0.18 0.03 0.03 85 1009.0
20260506173732 19 291 0.0 8.0 0.00 0.00 0.00 81 1008.7
20260506173228 20 198 8.0 14.5 0.00 0.00 0.00 74 1009.1
20260506172724 21 180 0.0 11.3 0.00 0.00 0.00 72 1009.1
20260506172221 21 221 3.2 11.3 0.00 0.00 0.00 70 1008.8
20260506171719 21 170 6.4 9.7 0.00 0.00 0.00 70 1009.1
20260506171216 21 228 3.2 16.1 0.00 0.00 0.00 70 1009.0
20260506170713 21 99 4.8 12.9 0.00 0.00 0.00 71 1008.9
20260506170210 22 227 4.8 8.0 0.00 0.00 0.00 68 1008.9
20260506165708 22 241 6.4 6.4 0.00 0.00 0.00 66 1008.8
20260506165205 22 270 3.2 8.0 0.00 0.00 0.00 65 1009.2
20260506164702 22 208 3.2 14.5 0.00 0.00 0.00 65 1009.0
20260506164159 22 243 4.8 11.3 0.00 0.00 0.00 64 1009.1
20260506163655 22 166 8.0 17.7 0.00 0.00 0.00 63 1009.5
20260506163151 22 149 4.8 8.0 0.00 0.00 0.00 64 1009.5
20260506162647 22 248 12.9 12.9 0.00 0.00 0.00 63 1009.5
20260506162144 22 255 0.0 11.3 0.00 0.00 0.00 64 1009.6
20260506161641 22 274 4.8 12.9 0.00 0.00 0.00 64 1009.7
20260506161138 22 150 6.4 22.5 0.00 0.00 0.00 64 1010.0
20260506160636 22 165 6.4 17.7 0.00 0.00 0.00 64 1010.0
20260506160133 22 195 1.6 11.3 0.00 0.00 0.00 65 1009.9
20260506155632 22 258 4.8 9.7 0.00 0.00 0.00 65 1009.9
20260506155128 22 288 6.4 9.7 0.00 0.00 0.00 65 1010.2
20260506153230 22 256 11.3 16.1 0.00 0.00 0.00 64 1010.2
20260506152727 22 180 0.0 8.0 0.00 0.00 0.00 64 1010.0
20260506152224 22 247 8.0 9.7 0.00 0.00 0.00 62 1010.2
20260506151724 22 292 3.2 14.5 0.00 0.00 0.00 63 1010.3
20260506151219 22 133 9.7 14.5 0.00 0.00 0.00 62 1010.2
20260506150716 22 260 6.4 12.9 0.00 0.00 0.00 62 1010.1
20260506150213 22 255 4.8 14.5 0.00 0.00 0.00 64 1010.0
20260506145710 22 255 4.8 19.3 0.00 0.00 0.00 63 1010.2
20260506145207 22 291 4.8 14.5 0.00 0.00 0.00 61 1010.4
20260506144704 22 282 3.2 19.3 0.00 0.00 0.00 64 1010.3
20260506144201 22 163 6.4 20.9 0.00 0.00 0.00 63 1010.4
20260506143659 21 215 8.0 16.1 0.00 0.00 0.00 64 1010.3
20260506143156 21 227 14.5 14.5 0.00 0.00 0.00 64 1010.5
20260506142655 21 176 3.2 14.5 0.00 0.00 0.00 64 1010.5
20260506142152 22 202 3.2 14.5 0.00 0.00 0.00 64 1010.3
20260506141650 21 241 3.2 20.9 0.00 0.00 0.00 63 1010.5
20260506141148 22 290 8.0 14.5 0.00 0.00 0.00 62 1010.6
20260506140645 21 273 4.8 16.1 0.00 0.00 0.00 65 1010.4
20260506140142 21 197 0.0 20.9 0.00 0.00 0.00 64 1010.5
20260506135639 21 96 0.0 16.1 0.00 0.00 0.00 65 1010.3
20260506135135 21 195 6.4 12.9 0.00 0.00 0.00 65 1010.6
20260506134632 20 192 9.7 11.3 0.00 0.00 0.00 67 1010.4
20260506134127 20 161 3.2 11.3 0.00 0.00 0.00 67 1010.5
20260506133625 20 202 6.4 6.4 0.00 0.00 0.00 66 1010.6
20260506133122 21 204 0.0 8.0 0.00 0.00 0.00 65 1010.5
20260506132619 21 204 0.0 8.0 0.00 0.00 0.00 65 1010.5
20260506132116 21 248 9.7 20.9 0.00 0.00 0.00 63 1010.7
20260506131614 21 0 0.0 9.7 0.00 0.00 0.00 66 1010.8
20260506131110 21 225 4.8 8.0 0.00 0.00 0.00 64 1011.0
20260506130607 22 8 0.0 4.8 0.00 0.00 0.00 64 1010.8
20260506130104 22 233 4.8 9.7 0.00 0.00 0.00 64 1011.0
20260506125603 21 212 6.4 12.9 0.00 0.00 0.00 65 1010.7
20260506125100 21 180 6.4 12.9 0.00 0.00 0.00 65 1010.7
20260506124557 21 340 0.0 14.5 0.00 0.00 0.00 67 1010.9
20260506124055 21 207 6.4 11.3 0.00 0.00 0.00 66 1010.8
20260506123552 21 161 8.0 11.3 0.00 0.00 0.00 66 1010.9
20260506123051 21 177 4.8 8.0 0.00 0.00 0.00 67 1010.9
20260506122547 21 264 1.6 12.9 0.00 0.00 0.00 68 1010.9
20260506122045 21 253 9.7 16.1 0.00 0.00 0.00 68 1011.0
20260506121542 20 173 1.6 16.1 0.00 0.00 0.00 69 1010.8
20260506121038 20 230 4.8 27.4 0.00 0.00 0.00 73 1010.9
20260506120537 19 195 3.2 4.8 0.00 0.00 0.00 72 1010.9
20260506120034 20 249 11.3 12.9 0.00 0.00 0.00 71 1010.9
20260506115532 20 211 8.0 9.7 0.00 0.00 0.00 72 1011.0
20260506115030 19 37 6.4 9.7 0.00 0.00 0.00 74 1011.0
20260506114527 19 180 1.6 11.3 0.00 0.00 0.00 75 1011.0
20260506114026 18 107 6.4 11.3 0.00 0.00 0.00 76 1010.9
20260506113523 18 300 1.6 6.4 0.00 0.00 0.00 77 1010.9
20260506113020 18 225 4.8 6.4 0.00 0.00 0.00 79 1010.8
20260506112516 17 151 1.6 6.4 0.00 0.00 0.00 79 1010.7
20260506112014 17 167 4.8 8.0 0.00 0.00 0.00 80 1010.7
20260506111512 17 133 4.8 6.4 0.00 0.00 0.00 83 1010.9
20260506111009 16 97 4.8 9.7 0.00 0.00 0.00 83 1010.8
20260506110507 16 312 0.0 6.4 0.00 0.00 0.00 85 1011.0
20260506110004 16 114 1.6 4.8 0.00 0.00 0.00 85 1010.8
20260506105459 16 170 4.8 8.0 0.00 0.00 0.00 85 1010.9
20260506104957 16 237 4.8 6.4 0.00 0.00 0.00 86 1010.8
20260506104455 16 195 0.0 6.4 0.00 0.00 0.00 87 1011.0
20260506103953 15 248 0.0 3.2 0.00 0.00 0.00 87 1010.8
20260506103449 15 182 4.8 6.4 0.00 0.00 0.00 88 1011.1
20260506102946 15 270 0.0 6.4 0.00 0.00 0.00 88 1010.9
20260506102444 15 233 4.8 8.0 0.00 0.00 0.00 88 1010.7
20260506101941 15 253 0.0 6.4 0.00 0.00 0.00 88 1010.7
20260506101438 15 173 6.4 6.4 0.00 0.00 0.00 88 1010.7
20260506100935 15 160 1.6 9.7 0.00 0.00 0.00 89 1010.6
20260506100433 15 162 3.2 3.2 0.00 0.00 0.00 89 1010.7
20260506095931 15 198 3.2 8.0 0.00 0.00 0.00 89 1010.8
20260506095429 15 246 0.0 4.8 0.00 0.00 0.00 90 1010.7
20260506094925 15 237 3.2 11.3 0.00 0.00 0.00 90 1010.5
20260506094424 15 249 6.4 6.4 0.00 0.00 0.00 90 1010.7
20260506093921 15 169 3.2 8.0 0.00 0.00 0.00 90 1010.6
20260506093419 15 180 4.8 8.0 0.00 0.00 0.00 90 1010.6
20260506092917 15 125 3.2 6.4 0.00 0.00 0.00 90 1010.5
20260506092415 15 121 4.8 4.8 0.00 0.00 0.00 91 1010.8
20260506091911 15 114 1.6 6.4 0.00 0.00 0.00 91 1010.7
20260506091409 15 146 3.2 3.2 0.00 0.00 0.00 91 1010.7
20260506090905 15 186 1.6 3.2 0.00 0.00 0.00 90 1010.8
20260506090403 15 254 1.6 3.2 0.00 0.00 0.00 90 1010.7
20260506085900 15 187 0.0 8.0 0.00 0.00 0.00 90 1010.8
20260506085356 15 180 0.0 4.8 0.00 0.00 0.00 90 1010.9
20260506084853 15 201 3.2 4.8 0.00 0.00 0.00 90 1011.0
20260506084349 15 164 0.0 4.8 0.00 0.00 0.00 91 1010.8
20260506083846 15 270 0.0 3.2 0.00 0.00 0.00 91 1010.9
20260506083344 15 243 1.6 6.4 0.00 0.00 0.00 90 1011.0
20260506082841 15 185 1.6 6.4 0.00 0.00 0.00 90 1011.2
20260506082337 15 157 1.6 4.8 0.00 0.00 0.00 91 1011.0
20260506081833 15 124 0.0 4.8 0.00 0.00 0.00 91 1010.9
20260506081332 15 63 0.0 6.4 0.00 0.00 0.00 91 1011.0
20260506080829 15 251 3.2 8.0 0.00 0.00 0.00 90 1010.9
20260506080325 15 138 4.8 4.8 0.00 0.00 0.00 91 1010.8
20260506073310 15 232 3.2 4.8 0.00 0.00 0.00 90 1011.0
20260506072806 15 261 0.0 4.8 0.00 0.00 0.00 90 1011.3
20260506072305 15 185 3.2 6.4 0.00 0.00 0.00 90 1011.2
20260506071801 15 121 0.0 6.4 0.00 0.00 0.00 89 1011.1
20260506071259 15 188 0.0 6.4 0.00 0.00 0.00 89 1011.2
20260506070756 16 216 3.2 3.2 0.00 0.00 0.00 89 1011.1
20260506070253 16 202 0.0 6.4 0.00 0.00 0.00 89 1011.3
20260506062230 16 219 3.2 4.8 0.00 0.00 0.00 86 1011.3
20260506061726 16 165 0.0 4.8 0.00 0.00 0.00 85 1011.2
20260506061224 17 286 3.2 4.8 0.00 0.00 0.00 84 1011.2
20260506060722 17 202 8.0 11.3 0.00 0.00 0.00 85 1011.3
20260506060219 17 233 3.2 6.4 0.00 0.00 0.00 84 1011.2
20260506051151 17 109 4.8 6.4 0.00 0.00 0.00 84 1011.8
20260506050649 17 203 3.2 14.5 0.00 0.00 0.00 84 1011.7
20260506050146 17 140 3.2 4.8 0.00 0.00 0.00 83 1011.8
20260506044637 17 114 0.0 12.9 0.00 0.00 0.00 83 1011.9
20260506044134 17 180 3.2 6.4 0.00 0.00 0.00 83 1011.6
20260506043631 17 180 0.0 6.4 0.00 0.00 0.00 83 1011.9
20260506043129 17 180 3.2 4.8 0.00 0.00 0.00 83 1011.7
20260506042627 17 109 4.8 8.0 0.00 0.00 0.00 83 1011.7
20260506042125 17 127 6.4 6.4 0.00 0.00 0.00 83 1011.7
20260506041624 17 201 4.8 4.8 0.00 0.00 0.00 82 1011.7
20260506041120 17 180 0.0 9.7 0.00 0.00 0.00 82 1011.7
20260506040618 17 129 8.0 8.0 0.00 0.00 0.00 81 1011.5
20260506040114 17 135 4.8 8.0 0.00 0.00 0.00 81 1011.7
20260506035611 17 276 4.8 8.0 0.00 0.00 0.00 80 1011.9
20260506035108 17 209 4.8 9.7 0.00 0.00 0.00 80 1011.5
20260506034605 17 165 0.0 4.8 0.00 0.00 0.00 79 1011.6
20260506034102 18 168 1.6 4.8 0.00 0.00 0.00 79 1011.5
20260506033559 18 180 0.0 6.4 0.00 0.00 0.00 78 1011.7
20260506033056 18 139 3.2 4.8 0.00 0.00 0.00 78 1011.7
20260506032553 18 180 1.6 8.0 0.00 0.00 0.00 78 1011.4
20260506032050 18 261 4.8 8.0 0.00 0.00 0.00 78 1011.9
20260506031548 18 172 0.0 6.4 0.00 0.00 0.00 77 1011.7
20260506031044 18 190 0.0 6.4 0.00 0.00 0.00 78 1011.9
20260506030543 18 180 3.2 3.2 0.00 0.00 0.00 78 1011.6
20260506030039 18 193 4.8 6.4 0.00 0.00 0.00 77 1011.8
20260506025536 18 191 4.8 8.0 0.00 0.00 0.00 77 1011.7
20260506025032 18 152 3.2 4.8 0.00 0.00 0.00 78 1011.7
20260506024530 18 265 4.8 8.0 0.00 0.00 0.00 78 1011.7
20260506024026 18 176 3.2 6.4 0.00 0.00 0.00 77 1011.6
20260506023522 18 176 0.0 4.8 0.00 0.00 0.00 77 1011.9
20260506023020 18 220 3.2 9.7 0.00 0.00 0.00 76 1011.8
20260506022517 18 109 3.2 11.3 0.00 0.00 0.00 76 1011.6
20260506022015 18 222 4.8 8.0 0.00 0.00 0.00 76 1011.8
20260506021512 18 155 4.8 11.3 0.00 0.00 0.00 76 1011.8
20260506021009 18 180 3.2 9.7 0.00 0.00 0.00 76 1011.8
20260506020507 18 194 3.2 6.4 0.00 0.00 0.00 76 1011.6
20260506020004 18 163 4.8 6.4 0.00 0.00 0.00 76 1012.0
20260506015501 18 213 3.2 4.8 0.00 0.00 0.00 76 1011.6
20260506014958 18 132 3.2 8.0 0.00 0.00 0.00 75 1011.9
20260506014455 18 180 1.6 9.7 0.00 0.00 0.00 76 1011.7
20260506013951 18 201 3.2 8.0 0.00 0.00 0.00 77 1011.5
20260506013449 18 184 3.2 8.0 0.00 0.00 0.00 77 1011.5
20260506012945 18 201 0.0 6.4 0.00 0.00 0.00 76 1011.6
20260506012442 18 200 1.6 6.4 0.00 0.00 0.00 76 1011.7
20260506011939 18 174 6.4 6.4 0.00 0.00 0.00 76 1011.6
20260506011436 18 245 0.0 4.8 0.00 0.00 0.00 75 1011.4
20260506010933 18 134 0.0 9.7 0.00 0.00 0.00 75 1011.4
20260506010432 18 157 0.0 14.5 0.00 0.00 0.00 74 1011.4
20260506005927 18 237 4.8 6.4 0.00 0.00 0.00 73 1011.4
20260506005426 18 270 3.2 8.0 0.00 0.00 0.00 73 1011.3
20260506004920 18 198 4.8 11.3 0.00 0.00 0.00 71 1011.2
20260506004419 19 159 4.8 14.5 0.00 0.00 0.00 70 1011.2
20260506003914 19 252 6.4 9.7 0.00 0.00 0.00 69 1011.0
20260506003411 19 171 4.8 14.5 0.00 0.00 0.00 68 1011.1
20260506002908 19 132 6.4 12.9 0.00 0.00 0.00 68 1011.1
20260506002404 19 223 6.4 11.3 0.00 0.00 0.00 69 1011.0
20260506001859 19 237 3.2 8.0 0.00 0.00 0.00 69 1011.0
20260506001356 19 151 0.0 9.7 0.00 0.00 0.00 68 1010.8
20260506000853 20 121 3.2 9.7 0.00 0.00 0.00 67 1011.0
20260506000353 20 175 8.0 16.1 0.00 0.00 0.00 67 1010.8
20260505235848 20 234 1.6 4.8 0.00 0.00 0.00 67 1010.8
20260505235345 20 240 1.6 12.9 0.00 0.00 0.00 66 1010.7
20260505234842 20 145 6.4 8.0 0.00 0.00 0.00 65 1010.9
20260505234340 20 206 1.6 6.4 0.00 0.00 0.00 64 1010.8
20260505233836 21 170 4.8 6.4 0.00 0.00 0.00 63 1010.5
20260505233335 21 165 0.0 9.7 0.00 0.00 0.00 62 1010.7
20260505232832 21 267 4.8 8.0 0.00 0.00 0.00 61 1010.5
20260505232330 21 208 3.2 11.3 0.00 0.00 0.00 61 1010.6
20260505231826 21 223 8.0 11.3 0.00 0.00 0.00 60 1010.4
20260505231324 21 125 3.2 4.8 0.00 0.00 0.00 61 1010.5
20260505230822 22 234 0.0 9.7 0.00 0.00 0.00 60 1010.5
20260505230318 22 230 6.4 11.3 0.00 0.00 0.00 59 1010.3
20260505225815 22 190 6.4 9.7 0.00 0.00 0.00 59 1010.4
20260505225312 22 325 4.8 9.7 0.00 0.00 0.00 60 1010.4
20260505224807 22 251 4.8 6.4 0.00 0.00 0.00 59 1010.3
20260505224306 22 171 0.0 11.3 0.00 0.00 0.00 58 1010.4
20260505223802 22 227 8.0 9.7 0.00 0.00 0.00 58 1010.3
20260505223259 23 119 9.7 11.3 0.00 0.00 0.00 56 1010.3
20260505222755 23 114 4.8 9.7 0.00 0.00 0.00 55 1010.0
20260505222251 23 127 4.8 8.0 0.00 0.00 0.00 54 1010.1
20260505221748 23 175 4.8 6.4 0.00 0.00 0.00 54 1010.1
20260505221245 23 185 9.7 17.7 0.00 0.00 0.00 54 1010.2
20260505220742 24 172 0.0 6.4 0.00 0.00 0.00 55 1010.1
20260505220239 24 126 6.4 12.9 0.00 0.00 0.00 54 1010.2
20260505215737 24 213 4.8 14.5 0.00 0.00 0.00 53 1010.2
20260505215235 24 113 4.8 11.3 0.00 0.00 0.00 53 1010.1
20260505214733 25 208 4.8 6.4 0.00 0.00 0.00 52 1009.8
20260505214229 25 177 4.8 16.1 0.00 0.00 0.00 51 1009.7
20260505213726 25 238 4.8 8.0 0.00 0.00 0.00 49 1009.7
20260505213224 25 170 4.8 8.0 0.00 0.00 0.00 51 1009.5
20260505212714 25 233 3.2 9.7 0.00 0.00 0.00 51 1009.3
20260505212212 25 183 3.2 17.7 0.00 0.00 0.00 50 1009.2
20260505211708 25 151 1.6 9.7 0.00 0.00 0.00 51 1009.4
20260505211206 25 125 3.2 12.9 0.00 0.00 0.00 51 1009.4
20260505210702 25 179 8.0 9.7 0.00 0.00 0.00 51 1009.5
20260505210159 25 128 6.4 6.4 0.00 0.00 0.00 51 1009.2
20260505205656 25 124 9.7 14.5 0.00 0.00 0.00 50 1009.2
20260505205154 26 209 4.8 11.3 0.00 0.00 0.00 49 1009.2
20260505204651 26 345 1.6 12.9 0.00 0.00 0.00 50 1009.0
20260505204149 26 180 0.0 16.1 0.00 0.00 0.00 48 1009.3
20260505203646 27 235 6.4 9.7 0.00 0.00 0.00 48 1009.5
20260505203142 27 206 16.1 16.1 0.00 0.00 0.00 48 1009.3
20260505202638 27 159 3.2 16.1 0.00 0.00 0.00 48 1009.1
20260505202134 27 142 9.7 14.5 0.00 0.00 0.00 47 1009.2
20260505201631 27 123 3.2 11.3 0.00 0.00 0.00 49 1009.6
20260505201129 27 157 3.2 8.0 0.00 0.00 0.00 46 1009.3
20260505200627 27 166 4.8 8.0 0.00 0.00 0.00 46 1009.4
20260505200124 28 154 1.6 12.9 0.00 0.00 0.00 42 1009.5
20260505195620 29 262 1.6 8.0 0.00 0.00 0.00 41 1009.3
20260505195117 28 76 8.0 11.3 0.00 0.00 0.00 39 1009.4
20260505194614 28 237 6.4 22.5 0.00 0.00 0.00 37 1009.2
20260505194110 28 239 4.8 17.7 0.00 0.00 0.00 38 1009.4
20260505193607 28 143 8.0 22.5 0.00 0.00 0.00 38 1009.6
20260505193104 28 148 3.2 16.1 0.00 0.00 0.00 39 1009.4